Simultaneous Nadir Overpasses (SNOs) Predictions

Prediction of SNOs between LANDSAT-8 and METOP-A Satellite Orbit:

Table of predicted SNOs for the next 14.0 days since TLE Epoch: 12/14/2013
Index Date (LANDSAT-8) Time (LANDSAT-8) Lat,Lon (LANDSAT-8) SZA (LANDSAT-8 ) Date (METOP-A) Time (METOP-A) Lat,Lon (METOP-A) SZA (METOP-A ) Distance(km) Time Diff (sec)
1 12/16/2013 09:05:38 -81.16, -95.92 73.44 12/16/2013 09:04:53 -81.16, -96.03 73.47 1.96 45
2 12/16/2013 09:55:03 81.18, 72.07 106.61 12/16/2013 09:55:32 81.18, 71.91 106.61 2.61 29
3 12/19/2013 04:39:50 -81.17, -29.38 73.38 12/19/2013 04:39:15 -81.17, -29.38 73.39 0.12 35
4 12/19/2013 05:29:15 81.19, 138.57 106.67 12/19/2013 05:29:54 81.19, 138.56 106.69 0.22 39
5 12/22/2013 00:14:00 -81.18, 37.29 73.36 12/22/2013 00:13:36 -81.17, 37.18 73.38 2.07 24
6
